"Pseudo-MPEC" for C0E9825

Created 2022 Nov 26 9:22:06 UT using Find_Orb

Click here for an explanation of pseudo-MPECs

 
 Astrometry: 
     C0E9825* C2022 11 24It(M7ZF(..TQiOh*Jk#MLtI(;14bAstrometry\7]??Ny?W%N?ZYV00
     C0E9825  C2022 11 24.credacted;Gl3lp;?Dd!_D2M-IDh]rAW)F+HZWDeI12sL+=k,V5V00
     C0E9825  C2022 11 24r]vA@c9m*pv+UE?sV=9%OKSU0pF'6hdfd@aMZT2**q:O6g+Te]+rV00
     C0E9825  C2022 11 248;h91I)4odT0khdWMINgxeT^s5#Vclick@un6=a!Aj!U`?cpeR5BV00
     C0E9825  C2022 11 24Y8qF6\NU5+10ZYRA!s1W(Kvkvawe*V#UVm7WvFF'1VD0ne2AQiIVF51
     C0E9825  C2022 11 24?n,[lq?NtYBej16yvGo@W=`i^k2aGRVT3%,$T7vk'nVrG,?=P4ftF51
     C0E9825 !C2022 11 25s1,ZY86gK8FWq7bP\jx8bFx[=%1Qk+$#l_6*OW0B#g9XYU.;E-.aJ04
     C0E9825 !C2022 11 25-,v$1./Wmhere4Z_sJj[D^A7pTm%plf$TM0PQB8:y`N3E!7i$rCHJ04
     C0E9825  C2022 11 250?:'s-`CSGaS28^.*xaj'Nj(eY,7W/Gv#(I0Bm=H:%Uqm4!FOFM#F51
     C0E9825  C2022 11 256/hIY%[V(cl`M/.A4H+e6a1f-8iwH2Fk'C7%jqq*D8@o0hTvXoaDF51
     C0E9825  C2022 11 25hST@E5=LLBpx9vslB#^wy=F`;#:)V)0\)ySUuK$for4KTb=q*t/[F51
     C0E9825 mC2022 11 25ML(hB+(K;y/L[8%im+dexplanationr/Sw;n5yix[%=*GHgrcf'iV00
     C0E9825 mC2022 11 25!sIjfTU^.5\#*KsI7iNTNuV;Ht')=\#fMCA\\_DquG!F#NooxIlMV00
     C0E9825 mC2022 11 25ZauTBYK$\8+%3g;L13G24Gj=p_[nb'BBhqPd*hfntF[;a-MN.9=UV00
     C0E9825 mC2022 11 25)ZKB;t+vpMdAXNL4pl(Dl=`.Jg\2yAdYF,N@7$j?h2wp81A*mew0V00
     C0E9825 KC2022 11 26K+48AFsAA]Tgi]b[aR*wT0bu;U;le@QyYry,9@iHa2_IGFVG*Nx_H21
     C0E9825 KC2022 11 26_`4ToOFZpw3)o25c,XenDJqlJMmUVln;,(o2o6(FJe;6XC2wk0!bH21
     C0E9825 KC2022 11 26LjJ[pO;WdXCYoKYsjt/D-,V^Qg`nC28mG8cv-@-qxQ*GVc@G7*kxH21

Station data:
(F51) Pan-STARRS 1, Haleakala  (N20.707234 W156.255910)  US/Hawaii.
   Observers J. Bulger, T. Lowe, A. Schultz, M. Willman. Measurers K.
   Chambers, S. Chastel, T. de Boer, L. Denneau, J. Fairlamb, H. Flewelling,
   M. Huber, C.-C. Lin, E. Magnier, Y. Ramanjooloo, R. Wainscoat, R. Weryk.
   1.8-m Ritchey-Chrétien + CCD.
(H21) Astronomical Research Observatory, Westfield  (N39.483054 W87.968270)
   US/Illinois.  Observer R. Holmes. Measurers S. Foglia, L. Buzzi, T.
   Linder, R. Holmes. 0.76-m f/3.0 astrograph + CCD0.81-m f/4.0 astrograph +
   CCD0.61-m f/4.5 astrograph + CCD0.40-m f/5.32 astrograph + CCD.
(J04) ESA Optical Ground Station, Tenerife  (N28.300922 W16.511830)  Canary
   Islands (Spain).  Observer D. Abreu. Measurers M. Micheli, D. Koschny, E.
   Schwab, M. Busch, A. Knöfel. 1.0-m f/4.4 reflector + CCD.
(V00) Kitt Peak-Bok  (N31.963125 W111.600190)  US/Arizona.  Observers T. A.
   Pruyne, B. M. Africano, E. J. Christensen, G. A. Farneth, D. C. Fuls, A.
   R. Gibbs, A. D. Grauer, H. Gröller, J. A. Johnson, R. A. Kowalski, S. M.
   Larson, G. J. Leonard, D. Rankin, R. L. Seaman, F. C. Shelly, K. W.
   Wierzchoś. 2.25-m reflector + CCD.

Orbital elements:  C0E9825
   Perihelion 2023 Feb 27.26672 +/- 0.0739 TT =  6:24:04 (JD 2460002.76672)
Epoch 2022 Nov 26.0 TT = JDT 2459909.5   Earth MOID: 0.0034   AutoNEOCP
M 278.15921704 +/- 0.14             (J2000 ecliptic)
n   0.87749183 +/- 0.000833         Peri.  101.75240 +/- 0.07
a   1.08053952 +/- 0.000684         Node    63.76232 +/- 0.0011
e   0.1792606 +/- 0.000546          Incl.   17.36045 +/- 0.06
P   1.12/410.25d           H 25.9   G  0.15   U  8.0
q 0.88684135 +/- 0.000113    Q 1.27423769 +/- 0.00139
From 18 observations 2022 Nov. 24-26 (44.6 hr); mean residual 0".21
Residuals in arcseconds: 
221124 V00  .16-  .01+    221125 J04  .40+  .23+    221125 V00  .10+  .22-    
221124 V00  .23+  .21-    221125 J04  .10-  .22+    221125 V00  .08-  .02+    
221124 V00  .13+  .13+    221125 F51  .17-  .01-    221125 V00  .02+  .18-    
221124 V00  .16+  .17-    221125 F51  .36-  .15+    221126 H21  .16-  .20+    
221124 F51  .39-  .13+    221125 F51  .38+  .56-    221126 H21  .22+  .08-    
221124 F51  .19-  .02-    221125 V00  .11+  .18+    221126 H21  .13-  .08-    

Ephemerides (geocentric):
Date (UTC) HH   RA             Dec           delta  r     elong  mag " sig PA
---- --------  ------------   ------------  ------ ------ -----  --- --------
2022 11 26 09  03 54 03.072   +19 15 33.80  .09969 1.0865 176.5 21.4 .195 143
2022 11 26 10  03 53 44.386   +19 21 40.20  .09958 1.0864 176.5 21.4 .206 142
2022 11 26 11  03 53 25.636   +19 27 47.29  .09947 1.0863 176.4 21.4 .217 141
2022 11 26 12  03 53 06.822   +19 33 55.07  .09936 1.0862 176.4 21.4 .228 141
2022 11 26 13  03 52 47.945   +19 40 03.54  .09925 1.0861 176.3 21.4 .240 140
2022 11 26 14  03 52 29.004   +19 46 12.70  .09915 1.0859 176.2 21.4 .252 140
2022 11 26 15  03 52 10.000   +19 52 22.53  .09904 1.0858 176.1 21.4 .264 140
2022 11 26 16  03 51 50.931   +19 58 33.05  .09893 1.0857 176.0 21.4 .277 139
2022 11 26 17  03 51 31.797   +20 04 44.23  .09883 1.0856 175.9 21.4 .289 139
2022 11 26 18  03 51 12.600   +20 10 56.09  .09872 1.0854 175.8 21.4 .303 139
2022 11 26 19  03 50 53.337   +20 17 08.61  .09862 1.0853 175.8 21.5 .316 139
2022 11 26 20  03 50 34.010   +20 23 21.79  .09851 1.0852 175.7 21.5 .330 138
2022 11 26 21  03 50 14.618   +20 29 35.63  .09841 1.0851 175.6 21.5 .344 138
2022 11 26 22  03 49 55.160   +20 35 50.12  .09831 1.0849 175.4 21.5 .358 138
2022 11 26 23  03 49 35.638   +20 42 05.26  .09821 1.0848 175.3 21.5 .373 138
2022 11 27 00  03 49 16.049   +20 48 21.05  .09810 1.0847 175.2 21.5 .388 138
2022 11 27 01  03 48 56.395   +20 54 37.47  .09800 1.0846 175.1 21.5 .403 138
2022 11 27 02  03 48 36.675   +21 00 54.53  .09790 1.0845 175.0 21.5 .418 138
2022 11 27 03  03 48 16.889   +21 07 12.23  .09780 1.0843 174.9 21.5 .434 138
2022 11 27 04  03 47 57.036   +21 13 30.54  .09770 1.0842 174.8 21.5 .450 138
2022 11 27 05  03 47 37.118   +21 19 49.48  .09761 1.0841 174.6 21.5 .467 137
2022 11 27 06  03 47 17.132   +21 26 09.04  .09751 1.0840 174.5 21.5 .483 137
2022 11 27 07  03 46 57.080   +21 32 29.21  .09741 1.0838 174.4 21.5 .500 137
2022 11 27 08  03 46 36.960   +21 38 49.99  .09731 1.0837 174.3 21.5 .518 137
2022 11 27 09  03 46 16.773   +21 45 11.37  .09722 1.0836 174.1 21.5 .535 137
2022 11 27 10  03 45 56.519   +21 51 33.35  .09712 1.0835 174.0 21.5 .553 137
2022 11 27 11  03 45 36.198   +21 57 55.93  .09703 1.0833 173.9 21.5 .571 137
2022 11 27 12  03 45 15.809   +22 04 19.09  .09693 1.0832 173.8 21.5 .590 137
2022 11 27 13  03 44 55.351   +22 10 42.83  .09684 1.0831 173.6 21.5 .608 137
2022 11 27 14  03 44 34.826   +22 17 07.16  .09675 1.0830 173.5 21.5 .628 137
2022 11 27 15  03 44 14.233   +22 23 32.05  .09665 1.0829 173.4 21.5 .647 137
2022 11 27 16  03 43 53.570   +22 29 57.52  .09656 1.0827 173.2 21.5 .667 137
2022 11 27 17  03 43 32.840   +22 36 23.54  .09647 1.0826 173.1 21.5 .687 137
2022 11 27 18  03 43 12.040   +22 42 50.13  .09638 1.0825 172.9 21.5 .707 137
2022 11 27 19  03 42 51.172   +22 49 17.26  .09629 1.0824 172.8 21.5 .727 137
2022 11 27 20  03 42 30.234   +22 55 44.95  .09620 1.0822 172.7 21.5 .748 137
2022 11 27 21  03 42 09.227   +23 02 13.17  .09611 1.0821 172.5 21.5 .769 137
2022 11 27 22  03 41 48.150   +23 08 41.93  .09602 1.0820 172.4 21.5 .791 137
2022 11 27 23  03 41 27.004   +23 15 11.22  .09594 1.0819 172.2 21.5 .813 137
2022 11 28 00  03 41 05.788   +23 21 41.03  .09585 1.0817 172.1 21.6 .835 137
2022 11 28 01  03 40 44.502   +23 28 11.36  .09576 1.0816 172.0 21.6 .857 137
2022 11 28 02  03 40 23.145   +23 34 42.20  .09568 1.0815 171.8 21.6 .880 137
2022 11 28 03  03 40 01.718   +23 41 13.55  .09559 1.0814 171.7 21.6 .903 137
2022 11 28 04  03 39 40.220   +23 47 45.41  .09551 1.0812 171.5 21.6 .926 137
2022 11 28 05  03 39 18.652   +23 54 17.75  .09542 1.0811 171.4 21.6 .949 137
2022 11 28 06  03 38 57.013   +24 00 50.59  .09534 1.0810 171.2 21.6 .973 137
2022 11 28 07  03 38 35.302   +24 07 23.90  .09526 1.0809 171.1 21.6 1.00 137
2022 11 28 08  03 38 13.520   +24 13 57.70  .09518 1.0808 170.9 21.6 1.02 137